Location: Sommers-Bausch Observatory
(40.0037°N, 105.2635°W)
Time: 13:48:45
(UTC-06:00)

Amateur Radio Satellites - All Passes

Search period start: 25 April 2015 13:18
Search period end: 26 April 2015 13:18
Location: Sommers-Bausch Observatory, 40.0037°N, 105.2635°W

Satellite Date Start Highest point End Downlink Frequencies (MHz)
Time Altitude Azimuth
Gurwin Techsat 1B 25 Apr 13:20:49 13:23:49 16° 63° (ENE) 13:27:02 435.225
SPROUT 25 Apr 13:21:09 13:25:30 87° 96° (E) 13:29:50 437.525
SWISSCUBE 25 Apr 13:23:46 13:25:13 12° 88° (E) 13:26:59 437.505
VELOX 1 25 Apr 13:31:49 13:33:24 11° 297° (WNW) 13:34:45 145.980
CUBEBUG 1 25 Apr 13:36:38 13:39:43 19° 293° (WNW) 13:42:41 437.445
AIST 2 25 Apr 13:47:01 13:50:52 33° 245° (WSW) 13:54:36 435.215
SO-50 25 Apr 13:54:39 13:57:25 15° 322° (NW) 14:00:05 436.795
Oscar 19 25 Apr 13:55:26 14:00:35 70° 259° (W) 14:05:46 437.125/150
ITUPSAT 1 25 Apr 14:25:32 14:30:08 47° 99° (E) 14:34:44 437.325
TISAT 1 25 Apr 14:28:13 14:31:33 22° 291° (WNW) 14:34:48 437.305
ITAMSAT 1 25 Apr 14:29:32 14:34:42 78° 74° (ENE) 14:39:54 435.822/435.867
ISS 25 Apr 14:34:22 14:36:16 14° 345° (NNW) 14:38:10 145.825
HORYU 2 25 Apr 14:39:06 14:41:38 15° 65° (ENE) 14:44:20 437.375
RS-15 25 Apr 14:39:16 14:49:55 67° 116° (ESE) 15:00:51 29.354- 29.394
JAS-2 25 Apr 14:45:18 14:50:58 23° 62° (ENE) 14:56:46 435.910
KKS-1 25 Apr 14:55:51 14:58:52 18° 92° (E) 15:02:02 437.445
BEESAT 25 Apr 14:56:25 15:01:12 80° 285° (WNW) 15:05:57 436.000
Gurwin Techsat 1B 25 Apr 14:58:00 15:03:17 69° 258° (WSW) 15:08:37 435.225
SWISSCUBE 25 Apr 14:58:56 15:03:41 69° 285° (WNW) 15:08:24 437.505
Cosmos 2504 25 Apr 15:01:39 15:10:06 45° 286° (WNW) 15:18:23 435.465 / 435.565
AO-7 25 Apr 15:06:17 15:13:39 39° 62° (ENE) 15:21:10 29.400- 29.500
VERMONT LUNAR 25 Apr 15:46:59 15:48:02 11° 146° (SE) 15:49:10 437.305
STARS 25 Apr 15:49:59 15:54:15 43° 99° (E) 15:58:30 437.465
ITUPSAT 1 25 Apr 16:04:24 16:07:42 18° 295° (WNW) 16:10:51 437.325
ISS 25 Apr 16:12:37 16:13:43 11° 5° (N) 16:14:50 145.825
ITAMSAT 1 25 Apr 16:12:54 16:14:54 12° 272° (W) 16:16:34 435.822/435.867
HORYU 2 25 Apr 16:13:30 16:17:53 53° 260° (W) 16:22:19 437.375
JAS-2 25 Apr 16:27:28 16:35:21 79° 258° (WSW) 16:43:03 435.910
KKS-1 25 Apr 16:31:30 16:35:44 41° 288° (WNW) 16:39:55 437.445
PCSat 25 Apr 16:31:35 16:35:11 18° 43° (NE) 16:38:56 145.827
GONETS M04 25 Apr 16:40:06 16:48:36 59° 92° (E) 16:57:14
RS-15 25 Apr 16:53:02 17:03:07 39° 320° (NW) 17:13:21 29.354- 29.394
MOZHAYETS 4 25 Apr 16:57:37 17:01:22 25° 94° (E) 17:05:10
AO-7 25 Apr 16:58:23 17:06:20 48° 260° (W) 17:14:15 29.400- 29.500
CUSAT 1 25 Apr 17:17:23 17:20:40 38° 91° (E) 17:24:57 437.405
CUTE-I 25 Apr 17:19:56 17:23:38 20° 64° (ENE) 17:27:30 437.470
VERMONT LUNAR 25 Apr 17:21:46 17:25:02 46° 160° (SSE) 17:28:18 437.305
STARS 25 Apr 17:27:22 17:30:24 18° 294° (WNW) 17:33:17 437.465
Cubesat XI-IV 25 Apr 17:29:01 17:33:10 24° 66° (ENE) 17:37:27 437.490
Cosmos 2499 25 Apr 17:32:33 17:38:41 23° 82° (E) 17:45:07 435.465 / 435.565
ISS 25 Apr 17:48:12 17:50:58 25° 25° (NNE) 17:53:44 145.825
PHONESAT 2.4 25 Apr 17:49:16 17:52:28 31° 155° (SSE) 17:55:42 2401.200-2431.200
DANDE 25 Apr 17:56:17 17:59:32 81° 98° (E) 18:03:51 436.750
PCSat 25 Apr 18:13:51 18:19:17 77° 244° (WSW) 18:24:41 145.827
JAS-2 25 Apr 18:17:20 18:21:33 14° 276° (W) 18:25:10 435.910
CUBESAT XI-V 25 Apr 18:34:09 18:37:32 21° 92° (E) 18:41:02 437.345
MOZHAYETS 4 25 Apr 18:34:35 18:38:37 30° 290° (WNW) 18:42:35
GONETS M04 25 Apr 18:38:29 18:46:03 30° 292° (WNW) 18:53:27
STRAND 1 25 Apr 18:41:14 18:42:38 11° 87° (E) 18:44:24 437.568
AUBIESAT-1 25 Apr 18:45:55 18:48:50 19° 96° (E) 18:51:41 437.475
HO-68 25 Apr 18:52:17 18:55:01 13° 53° (NE) 18:58:09 435.675
CUTE-I 25 Apr 18:58:10 19:03:22 53° 260° (W) 19:08:34 437.470
VERMONT LUNAR 25 Apr 18:59:02 19:02:26 82° 355° (N) 19:05:50 437.305
CUSAT 1 25 Apr 19:01:48 19:04:01 14° 300° (WNW) 19:06:21 437.405
SO-50 25 Apr 19:04:57 19:06:58 12° 35° (NE) 19:09:09 436.795
PRISM 25 Apr 19:07:26 19:10:48 25° 95° (E) 19:14:14 437.425
Cubesat XI-IV 25 Apr 19:08:00 19:13:03 42° 262° (W) 19:18:06 437.490
RS-15 25 Apr 19:12:27 19:19:56 19° 353° (N) 19:27:30 29.354- 29.394
Cosmos 2499 25 Apr 19:22:12 19:31:07 77° 279° (W) 19:39:48 435.465 / 435.565
ISS 25 Apr 19:24:19 19:27:27 44° 223° (SW) 19:30:33 145.825
PHONESAT 2.4 25 Apr 19:26:55 19:30:31 86° 171° (S) 19:34:08 2401.200-2431.200
M-CUBED/EXP-1 PRIME 25 Apr 19:37:18 19:41:32 86° 293° (WNW) 19:45:23 437.505
SEEDS 25 Apr 19:46:50 19:47:43 11° 64° (ENE) 19:48:49 437.485
CANX-2 25 Apr 19:53:17 19:56:02 17° 67° (ENE) 19:58:56 2200.000
CUTE 1.7 + AOD 2 25 Apr 20:02:07 20:05:08 19° 68° (ENE) 20:08:17 437.475
AAUSAT CUBESAT 2 25 Apr 20:03:28 20:04:44 11° 65° (ENE) 20:06:13 437.432
CUBESAT XI-V 25 Apr 20:10:53 20:15:08 37° 288° (WNW) 20:19:21 437.345
CINEMA 3 25 Apr 20:12:24 20:13:51 12° 63° (ENE) 20:15:31 145.822/145.860
STRAND 1 25 Apr 20:17:26 20:22:33 78° 285° (WNW) 20:27:39 437.568
AUBIESAT-1 25 Apr 20:20:03 20:23:47 31° 295° (WNW) 20:27:11 437.475
GOMX 1 25 Apr 20:26:47 20:30:48 47° 73° (ENE) 20:35:02 467.674
YUBILEINY 25 Apr 20:34:03 20:38:45 16° 58° (ENE) 20:43:58 435.215
HO-68 25 Apr 20:34:29 20:41:34 67° 71° (ENE) 20:48:44 435.675
VERMONT LUNAR 25 Apr 20:36:34 20:39:57 76° 193° (SSW) 20:43:20 437.305
BRITE-PL 25 Apr 20:39:36 20:43:44 75° 258° (WSW) 20:48:01 437.365/2234.400
PRISM 25 Apr 20:42:50 20:46:13 25° 291° (WNW) 20:49:31 437.425
SO-50 25 Apr 20:43:34 20:48:31 68° 55° (NE) 20:53:25 436.795
COMPASS 1 25 Apr 20:53:17 20:57:21 47° 74° (ENE) 21:01:27 437.405
DOVE 4 25 Apr 21:02:42 21:06:55 80° 75° (ENE) 21:11:23 437.250
PHONESAT 2.4 25 Apr 21:05:13 21:08:49 88° 359° (N) 21:12:25 2401.200-2431.200
Oscar 11 25 Apr 21:08:53 21:12:36 29° 70° (ENE) 21:16:24 145.826/435.025
ZACube-1 25 Apr 21:10:43 21:13:29 17° 66° (ENE) 21:16:25 437.345
DELFI C3 25 Apr 21:11:39 21:14:46 22° 69° (ENE) 21:17:58 145.870
SEEDS 25 Apr 21:18:44 21:23:00 71° 259° (W) 21:27:17 437.485
Cosmos 2499 25 Apr 21:20:42 21:25:55 16° 301° (WNW) 21:30:32 435.465 / 435.565
CANX-2 25 Apr 21:27:36 21:31:40 41° 262° (W) 21:35:47 2200.000
RS-15 25 Apr 21:28:29 21:37:40 28° 28° (NNE) 21:47:27 29.354- 29.394
AAUSAT CUBESAT 2 25 Apr 21:35:42 21:39:53 64° 259° (W) 21:44:06 437.432
CUTE 1.7 + AOD 2 25 Apr 21:36:51 21:40:50 36° 263° (W) 21:44:49 437.475
DX 1 25 Apr 21:43:00 21:46:26 24° 68° (ENE) 21:49:57 434.975-435.025
CUBEBUG 2 25 Apr 21:44:35 21:48:52 59° 74° (ENE) 21:53:20 437.445
CINEMA 3 25 Apr 21:46:10 21:50:27 68° 259° (WSW) 21:55:00 145.822/145.860
50 SAT 25 Apr 21:58:27 22:00:44 15° 67° (ENE) 22:03:10 437.505
GOMX 1 25 Apr 22:07:15 22:09:24 13° 272° (W) 22:11:23 467.674
UWE-3 25 Apr 22:10:25 22:14:45 87° 257° (WSW) 22:19:16 435.000/436.395/437.385
ESTCUBE 1 25 Apr 22:13:16 22:15:18 13° 64° (ENE) 22:17:33 437.505/2401.250
O/OREOS (USA 219) 25 Apr 22:13:42 22:18:00 41° 106° (ESE) 22:22:19 437.305
VERMONT LUNAR 25 Apr 22:14:24 22:17:09 23° 208° (SSW) 22:19:52 437.305
Cosmos 2491 25 Apr 22:17:43 22:25:19 37° 87° (E) 22:33:09 435.465 / 435.565
FUNcube-1 25 Apr 22:19:38 22:23:58 88° 257° (WSW) 22:28:26 145.935
HO-68 25 Apr 22:24:26 22:29:56 22° 269° (W) 22:35:12 435.675
UKube-1 25 Apr 22:24:57 22:29:13 65° 74° (ENE) 22:33:30 .
SO-50 25 Apr 22:25:47 22:28:35 15° 251° (WSW) 22:31:09 436.795
YUBILEINY 25 Apr 22:28:32 22:37:20 81° 81° (E) 22:46:03 435.215
COMPASS 1 25 Apr 22:31:01 22:33:21 14° 270° (W) 22:35:31 437.405
TIGRISAT 25 Apr 22:35:49 22:38:37 16° 90° (E) 22:41:36 435.000
HUMSAT D 25 Apr 22:39:04 22:43:17 75° 76° (ENE) 22:47:35 437.325/437.525
UNISAT 6 25 Apr 22:39:53 22:43:04 18° 91° (E) 22:46:23 437.425
PHONESAT 2.4 25 Apr 22:43:35 22:46:56 37° 203° (SSW) 22:50:16 2401.200-2431.200
Oscar 11 25 Apr 22:45:13 22:48:48 24° 266° (W) 22:52:19 145.826/435.025
ZACube-1 25 Apr 22:45:22 22:49:31 44° 262° (W) 22:53:47 437.345
DELFI C3 25 Apr 22:46:13 22:49:47 28° 265° (W) 22:53:19 145.870
VELOX 1 25 Apr 22:49:50 22:54:07 57° 74° (ENE) 22:58:28 145.980
CUBEBUG 1 25 Apr 22:55:18 22:59:03 30° 70° (ENE) 23:02:52 437.445
Cosmos 2504 25 Apr 23:05:33 23:07:55 12° 55° (NE) 23:10:48 435.465 / 435.565
AISAT 25 Apr 23:07:41 23:12:05 86° 260° (W) 23:16:31 437.250
POLYITAN 1 25 Apr 23:08:34 23:11:17 17° 91° (E) 23:14:08 437.675
DUCHIFAT 1 25 Apr 23:09:28 23:12:03 16° 91° (E) 23:14:49 145.980
DX 1 25 Apr 23:18:47 23:22:35 29° 264° (W) 23:26:21 434.975-435.025
ANTELSAT 25 Apr 23:20:56 23:25:32 50° 99° (E) 23:30:03 437.575/2403.000
CUBEBUG 2 25 Apr 23:24:19 23:26:06 12° 273° (W) 23:27:38 437.445
QB50P1 25 Apr 23:26:19 23:29:53 26° 95° (E) 23:33:30 145.935-145.965
50 SAT 25 Apr 23:31:26 23:35:13 41° 262° (W) 23:39:03 437.505
RS-15 25 Apr 23:40:54 23:52:29 76° 56° (NE) 00:04:36 29.354- 29.394
TISAT 1 25 Apr 23:44:19 23:47:28 22° 68° (ENE) 23:50:44 437.305
ESTCUBE 1 25 Apr 23:47:15 23:51:43 62° 259° (W) 23:56:12 437.505/2401.250
QB50P2 25 Apr 23:52:01 23:56:14 51° 99° (E) 00:00:26 145.880/145.840
O/OREOS (USA 219) 25 Apr 23:54:11 23:57:38 20° 304° (NW) 00:00:59 437.305
UKube-1 26 Apr 00:05:03 00:05:54 10° 272° (W) 00:06:25 .
NANOSAT C BR1 26 Apr 00:09:58 00:14:16 82° 102° (ESE) 00:18:34 145.865
TIGRISAT 26 Apr 00:11:08 00:15:43 50° 287° (WNW) 00:20:12 435.000
POPSAT HIP 1 26 Apr 00:13:15 00:17:34 89° 102° (ESE) 00:21:53 437.405
Cosmos 2491 26 Apr 00:13:41 00:22:01 47° 286° (WNW) 00:30:23 435.465 / 435.565
SPROUT 26 Apr 00:14:32 00:18:43 60° 75° (ENE) 00:22:57 437.525
UNISAT 6 26 Apr 00:15:38 00:20:07 43° 288° (WNW) 00:24:30 437.425
YUBILEINY 26 Apr 00:27:15 00:33:15 20° 279° (W) 00:38:45 435.215
BEESAT 26 Apr 00:27:49 00:29:35 12° 62° (ENE) 00:31:36 436.000
VELOX 1 26 Apr 00:29:14 00:31:09 12° 271° (W) 00:32:48 145.980
SWISSCUBE 26 Apr 00:29:45 00:32:06 14° 64° (ENE) 00:34:40 437.505
CUBEBUG 1 26 Apr 00:32:02 00:35:28 22° 266° (W) 00:38:50 437.445
BUGSAT 1 26 Apr 00:36:45 00:40:54 71° 285° (WNW) 00:45:04 437.445
POLYITAN 1 26 Apr 00:43:20 00:47:25 41° 288° (WNW) 00:51:28 437.675
DUCHIFAT 1 26 Apr 00:44:04 00:48:07 41° 288° (WNW) 00:52:08 145.980
Cosmos 2504 26 Apr 00:55:22 01:03:24 69° 79° (E) 01:10:50 435.465 / 435.565
ANTELSAT 26 Apr 00:58:48 01:01:56 17° 294° (WNW) 01:04:54 437.575/2403.000
QB50P1 26 Apr 01:02:05 01:05:43 26° 290° (WNW) 01:09:16 145.935-145.965
AIST 1 26 Apr 01:07:57 01:12:16 88° 277° (W) 01:16:35
TISAT 1 26 Apr 01:19:25 01:23:07 30° 264° (W) 01:26:48 437.305
QB50P2 26 Apr 01:29:21 01:31:45 14° 294° (WNW) 01:33:58 145.880/145.840
ITUPSAT 1 26 Apr 01:31:37 01:36:15 52° 73° (ENE) 01:40:55 437.325
SPROUT 26 Apr 01:53:59 01:55:18 11° 272° (W) 01:56:21 437.525
KKS-1 26 Apr 01:54:08 01:56:47 16° 66° (ENE) 01:59:36 437.445
RS-15 26 Apr 01:54:25 02:04:09 30° 254° (WSW) 02:13:43 29.354- 29.394
BEESAT 26 Apr 02:02:05 02:06:52 76° 257° (WSW) 02:11:41 436.000
SWISSCUBE 26 Apr 02:04:43 02:09:29 65° 259° (W) 02:14:15 437.505
Oscar 19 26 Apr 02:07:46 02:12:44 44° 98° (E) 02:17:41 437.125/150
BEESAT 3 26 Apr 02:39:17 02:43:10 45° 117° (ESE) 02:47:08 437.485
BEESAT 2 26 Apr 02:41:12 02:45:01 39° 116° (ESE) 02:48:55 435.950
ITAMSAT 1 26 Apr 02:43:30 02:47:55 29° 95° (E) 02:52:25 435.822/435.867
STARS 26 Apr 02:46:24 02:50:22 35° 71° (ENE) 02:54:25 437.465
Cosmos 2504 26 Apr 02:50:16 02:56:00 21° 278° (W) 03:01:09 435.465 / 435.565
GONETS M04 26 Apr 02:51:40 02:58:53 28° 67° (ENE) 03:06:20
DANDE 26 Apr 02:53:26 02:57:14 15° 62° (ENE) 03:01:48 436.750
ITUPSAT 1 26 Apr 03:11:28 03:14:31 16° 269° (W) 03:17:21 437.325
Gurwin Techsat 1B 26 Apr 03:14:55 03:20:05 51° 99° (E) 03:25:14 435.225
KKS-1 26 Apr 03:28:47 03:33:04 48° 261° (W) 03:37:23 437.445
JAS-2 26 Apr 03:41:54 03:44:36 14° 84° (E) 03:47:33 435.910
AIST 2 26 Apr 03:43:40 03:47:51 59° 118° (ESE) 03:52:05 435.215
Oscar 19 26 Apr 03:47:46 03:51:50 23° 294° (WNW) 03:55:46 437.125/150
CUSAT 1 26 Apr 03:52:22 03:59:39 47° 74° (ENE) 04:07:40 437.405
MOZHAYETS 4 26 Apr 03:59:12 04:02:47 23° 68° (ENE) 04:06:29
HORYU 2 26 Apr 04:05:42 04:09:39 30° 96° (E) 04:13:37 437.375
BEESAT 3 26 Apr 04:18:26 04:21:26 19° 315° (NW) 04:24:23 437.485
BEESAT 2 26 Apr 04:20:04 04:23:18 21° 314° (NW) 04:26:29 435.950
ITAMSAT 1 26 Apr 04:22:50 04:27:28 33° 291° (WNW) 04:32:02 435.822/435.867
STARS 26 Apr 04:23:41 04:26:58 20° 267° (W) 04:30:08 437.465
DANDE 26 Apr 04:34:07 04:41:38 72° 79° (E) 04:50:13 436.750
GONETS M04 26 Apr 04:47:44 04:56:28 63° 267° (W) 05:05:05
M-CUBED/EXP-1 PRIME 26 Apr 04:51:57 04:54:20 14° 59° (ENE) 04:56:57 437.505
Gurwin Techsat 1B 26 Apr 04:55:48 04:59:44 21° 295° (WNW) 05:03:31 435.225
AO-7 26 Apr 05:00:03 05:08:17 62° 103° (ESE) 05:16:33 29.400- 29.500
Cosmos 2499 26 Apr 05:15:44 05:22:44 36° 71° (ENE) 05:29:24 435.465 / 435.565
AIST 2 26 Apr 05:23:58 05:26:50 17° 317° (NW) 05:29:37 435.215
JAS-2 26 Apr 05:24:27 05:30:50 78° 286° (WNW) 05:36:26 435.910
AUBIESAT-1 26 Apr 05:31:56 05:36:02 29° 64° (ENE) 05:40:12 437.475
CUSAT 1 26 Apr 05:35:16 05:42:21 39° 269° (W) 05:49:49 437.405
MOZHAYETS 4 26 Apr 05:35:36 05:39:51 34° 264° (W) 05:44:05
CUBESAT XI-V 26 Apr 05:37:23 05:40:37 20° 67° (ENE) 05:44:00 437.345
HORYU 2 26 Apr 05:42:30 05:46:11 25° 292° (WNW) 05:49:47 437.375
STRAND 1 26 Apr 05:55:49 05:58:59 17° 64° (ENE) 06:02:21 437.568
PRISM 26 Apr 05:57:38 06:00:27 18° 67° (ENE) 06:03:24 437.425
DANDE 26 Apr 06:18:28 06:24:34 25° 272° (W) 06:30:53 436.750
M-CUBED/EXP-1 PRIME 26 Apr 06:23:50 06:28:38 76° 252° (WSW) 06:33:30 437.505
AO-7 26 Apr 06:53:36 07:00:40 31° 301° (WNW) 07:07:32 29.400- 29.500
AUBIESAT-1 26 Apr 07:06:25 07:10:43 32° 260° (W) 07:14:58 437.475
Cosmos 2499 26 Apr 07:08:52 07:15:59 40° 272° (W) 07:22:34 435.465 / 435.565
JAS-2 26 Apr 07:12:21 07:14:46 12° 305° (NW) 07:16:45 435.910
CUBESAT XI-V 26 Apr 07:13:26 07:17:49 41° 262° (W) 07:22:11 437.345
PCSat 26 Apr 07:14:19 07:17:06 15° 105° (ESE) 07:20:10 145.827
CUTE-I 26 Apr 07:15:44 07:21:02 65° 101° (E) 07:26:20 437.470
Cubesat XI-IV 26 Apr 07:25:31 07:30:52 81° 102° (ESE) 07:36:13 437.490
PRISM 26 Apr 07:31:51 07:35:43 36° 262° (W) 07:39:33 437.425
STRAND 1 26 Apr 07:32:45 07:37:47 58° 259° (W) 07:42:50 437.568
HO-68 26 Apr 08:06:59 08:08:27 11° 84° (E) 08:10:32 435.675
O/OREOS (USA 219) 26 Apr 08:24:08 08:28:38 71° 67° (ENE) 08:33:05 437.305
GOMX 1 26 Apr 08:29:09 08:32:41 19° 91° (E) 08:36:30 467.674
Cosmos 2491 26 Apr 08:29:23 08:34:34 17° 60° (ENE) 08:40:14 435.465 / 435.565
BRITE-PL 26 Apr 08:43:49 08:48:36 39° 97° (E) 08:53:44 437.365/2234.400
PCSat 26 Apr 08:54:35 08:59:59 72° 301° (WNW) 09:05:26 145.827
CUTE-I 26 Apr 08:57:16 09:00:38 17° 297° (WNW) 09:03:48 437.470
DOVE 4 26 Apr 09:02:10 09:06:25 26° 94° (E) 09:10:52 437.250
SEEDS 26 Apr 09:04:42 09:07:47 20° 92° (E) 09:10:58 437.485
Cubesat XI-IV 26 Apr 09:07:43 09:10:22 14° 299° (WNW) 09:12:46 437.490
CANX-2 26 Apr 09:13:38 09:17:32 34° 96° (E) 09:21:26 2200.000
AAUSAT CUBESAT 2 26 Apr 09:20:14 09:23:20 20° 93° (E) 09:26:31 437.432
CUTE 1.7 + AOD 2 26 Apr 09:22:35 09:26:36 38° 97° (E) 09:30:35 437.475
TIGRISAT 26 Apr 09:34:50 09:37:04 14° 64° (ENE) 09:39:31 435.000
YUBILEINY 26 Apr 09:35:46 09:40:56 18° 80° (E) 09:46:37 435.215
CUBEBUG 2 26 Apr 09:37:43 09:40:19 15° 89° (E) 09:43:08 437.445
UNISAT 6 26 Apr 09:38:57 09:41:37 16° 65° (ENE) 09:44:30 437.425
CINEMA 3 26 Apr 09:41:35 09:46:03 32° 95° (E) 09:50:34 145.822/145.860
HO-68 26 Apr 09:50:21 09:57:34 74° 104° (ESE) 10:04:43 435.675
UWE-3 26 Apr 10:01:43 10:05:15 21° 92° (E) 10:08:53 435.000/436.395/437.385
POLYITAN 1 26 Apr 10:02:25 10:04:05 12° 65° (ENE) 10:05:58 437.675
DUCHIFAT 1 26 Apr 10:02:49 10:04:15 12° 65° (ENE) 10:05:54 145.980
GOMX 1 26 Apr 10:06:03 10:11:06 54° 286° (WNW) 10:16:20 467.674
FUNcube-1 26 Apr 10:09:36 10:12:54 20° 92° (E) 10:16:19 145.935
COMPASS 1 26 Apr 10:12:53 10:17:07 81° 283° (WNW) 10:21:17 437.405
UKube-1 26 Apr 10:15:34 10:16:47 11° 89° (E) 10:18:16 .
QB50P1 26 Apr 10:19:12 10:22:04 19° 68° (ENE) 10:25:04 145.935-145.965
ANTELSAT 26 Apr 10:19:13 10:23:27 40° 72° (ENE) 10:27:49 437.575/2403.000
BRITE-PL 26 Apr 10:22:42 10:26:59 27° 290° (WNW) 10:31:24 437.365/2234.400
Cosmos 2491 26 Apr 10:24:10 10:33:03 85° 82° (E) 10:41:55 435.465 / 435.565
HUMSAT D 26 Apr 10:25:41 10:27:41 13° 89° (E) 10:29:55 437.325/437.525
DELFI C3 26 Apr 10:25:55 10:29:41 38° 97° (E) 10:33:28 145.870
Oscar 11 26 Apr 10:32:14 10:36:34 63° 100° (E) 10:40:51 145.826/435.025
ZACube-1 26 Apr 10:34:34 10:38:52 37° 97° (E) 10:43:07 437.345
DOVE 4 26 Apr 10:39:30 10:44:14 38° 289° (WNW) 10:49:04 437.250
SEEDS 26 Apr 10:39:52 10:43:42 32° 289° (WNW) 10:47:26 437.485
PCSat 26 Apr 10:41:55 10:44:29 13° 321° (NW) 10:46:51 145.827
VELOX 1 26 Apr 10:43:18 10:44:39 11° 89° (E) 10:46:17 145.980
QB50P2 26 Apr 10:44:28 10:48:18 35° 71° (ENE) 10:52:12 145.880/145.840
CANX-2 26 Apr 10:50:05 10:53:16 20° 292° (WNW) 10:56:20 2200.000
AAUSAT CUBESAT 2 26 Apr 10:55:19 10:59:02 31° 289° (WNW) 11:02:40 437.432
SO-50 26 Apr 10:58:10 11:01:52 25° 112° (ESE) 11:05:47 436.795
BEESAT 3 26 Apr 10:58:58 11:02:21 24° 48° (NE) 11:05:45 437.485
CUTE 1.7 + AOD 2 26 Apr 10:59:18 11:02:16 18° 293° (WNW) 11:05:04 437.475
AISAT 26 Apr 10:59:59 11:03:07 19° 92° (E) 11:06:23 437.250
BEESAT 2 26 Apr 11:01:23 11:04:38 22° 47° (NE) 11:07:54 435.950
NANOSAT C BR1 26 Apr 11:01:48 11:05:53 54° 74° (ENE) 11:10:01 145.865
POPSAT HIP 1 26 Apr 11:05:17 11:09:25 60° 75° (ENE) 11:13:37 437.405
DX 1 26 Apr 11:07:06 11:11:19 47° 99° (E) 11:15:33 434.975-435.025
TIGRISAT 26 Apr 11:08:51 11:13:18 61° 259° (W) 11:17:55 435.000
50 SAT 26 Apr 11:09:31 11:12:48 24° 94° (E) 11:16:07 437.505
CUBEBUG 2 26 Apr 11:12:44 11:17:26 56° 286° (WNW) 11:22:04 437.445
UNISAT 6 26 Apr 11:13:34 11:18:00 52° 261° (W) 11:22:32 437.425
AIST 1 26 Apr 11:16:31 11:19:41 21° 72° (ENE) 11:22:58
CINEMA 3 26 Apr 11:18:51 11:23:09 29° 291° (WNW) 11:27:24 145.822/145.860
BUGSAT 1 26 Apr 11:26:05 11:30:05 72° 76° (ENE) 11:34:07 437.445
YUBILEINY 26 Apr 11:27:53 11:36:45 87° 279° (W) 11:45:38 435.215
POLYITAN 1 26 Apr 11:35:24 11:39:33 59° 260° (W) 11:43:46 437.675
DUCHIFAT 1 26 Apr 11:35:28 11:39:37 61° 259° (W) 11:43:48 145.980
UWE-3 26 Apr 11:37:34 11:41:55 37° 289° (WNW) 11:46:12 435.000/436.395/437.385
HO-68 26 Apr 11:39:19 11:44:40 22° 301° (WNW) 11:49:46 435.675
ESTCUBE 1 26 Apr 11:41:00 11:44:51 28° 95° (E) 11:48:44 437.505/2401.250
FUNcube-1 26 Apr 11:45:06 11:49:24 39° 288° (WNW) 11:53:37 145.935
UKube-1 26 Apr 11:49:07 11:53:24 61° 286° (WNW) 11:57:39 .
QB50P1 26 Apr 11:53:48 11:57:43 36° 263° (W) 12:01:38 145.935-145.965
ANTELSAT 26 Apr 11:57:10 12:00:27 19° 269° (W) 12:03:40 437.575/2403.000
HUMSAT D 26 Apr 11:59:36 12:03:50 51° 286° (WNW) 12:08:00 437.325/437.525
ISS 26 Apr 12:01:58 12:05:13 76° 141° (SE) 12:08:29 145.825
DELFI C3 26 Apr 12:01:58 12:04:34 16° 293° (WNW) 12:07:00 145.870
SPROUT 26 Apr 12:04:16 12:05:26 11° 88° (E) 12:06:53 437.525
AIST 2 26 Apr 12:06:17 12:10:07 32° 50° (NE) 12:13:54 435.215
Oscar 11 26 Apr 12:10:28 12:12:16 12° 296° (WNW) 12:13:51 145.826/435.025
ZACube-1 26 Apr 12:11:27 12:15:00 22° 292° (WNW) 12:18:24 437.345
VELOX 1 26 Apr 12:17:18 12:21:42 62° 286° (WNW) 12:26:05 145.980
CUBEBUG 1 26 Apr 12:20:19 12:24:40 68° 101° (ESE) 12:29:01 437.445
QB50P2 26 Apr 12:21:21 12:24:22 18° 268° (W) 12:27:16 145.880/145.840
Cosmos 2491 26 Apr 12:23:06 12:28:56 19° 280° (W) 12:34:18 435.465 / 435.565
AISAT 26 Apr 12:35:44 12:39:53 38° 289° (WNW) 12:44:00 437.250
BEESAT 3 26 Apr 12:36:45 12:40:25 31° 245° (WSW) 12:43:57 437.485
SO-50 26 Apr 12:37:50 12:42:14 38° 310° (NW) 12:46:45 436.795
BEESAT 2 26 Apr 12:39:04 12:42:52 36° 245° (WSW) 12:46:34 435.950
NANOSAT C BR1 26 Apr 12:40:27 12:42:10 12° 271° (W) 12:43:38 145.865
50 SAT 26 Apr 12:44:13 12:47:34 25° 290° (WNW) 12:50:49 437.505
DX 1 26 Apr 12:44:31 12:47:14 16° 294° (WNW) 12:49:47 434.975-435.025
POPSAT HIP 1 26 Apr 12:44:39 12:45:47 11° 272° (W) 12:46:39 437.405
AIST 1 26 Apr 12:53:40 12:57:25 30° 269° (W) 13:01:06
TISAT 1 26 Apr 13:04:04 13:08:07 42° 98° (E) 13:12:10 437.305
